Regional Weather Roundup
Issued by NWS

Home | Current Version | Previous Version | Text Only | Print | Product List | Glossary Off
Versions: 1 2 3 4 5 6 7 8 9 10 11 12 13 14 15 16 17 18 19 20 21 22 23 24 25 26 27 28 29 30 31 32 33 34 35 36 37 38 39 40 41 42 43 44 45 46 47 48 49 50

000
ASUS43 KDTX 020810
RWRMI
MICHIGAN HOURLY REGIONAL WEATHER ROUNDUP
NATIONAL WEATHER SERVICE DETROIT/PONTIAC MI
400 AM EDT MON MAY 02 2016

NOTE: "FAIR" INDICATES FEW OR NO CLOUDS BELOW 12,000 FEET WITH NO
SIGNIFICANT WEATHER AND/OR OBSTRUCTION TO VISIBILITY.

MIZ047>049-052>055-059>063-066>070-074>076-081>083-020900-
SOUTHEAST LOWER MICHIGAN

CITY           SKY/WX    TMP DP  RH WIND       PRES   REMARKS
ADRIAN         LGT RAIN  46  44  93 NE12      29.94F
ALMA           DRIZZLE   42  39  91 N6        30.03S
ANN ARBOR      CLOUDY    45  43  93 N8        29.95F
BAD AXE        CLOUDY    42  39  92 NE5       30.03S
CARO           DRIZZLE   42  40  93 N7        29.99F
DETROIT CITY   LGT RAIN  47  45  93 E7        29.94F
DETROIT        RAIN      46  46 100 NW3       29.95R
FLINT          LGT RAIN  45  41  86 N8        29.98F
GROSSE ILE     CLOUDY    46  45  93 CALM      29.92S
HILLSDALE      CLOUDY    44  44 100 NE5       29.93F
HOWELL         DRIZZLE   43  42  97 N6        29.96F

CITY           SKY/WX    TMP DP  RH WIND       PRES   REMARKS
JACKSON        CLOUDY    44  32  62 NE6       29.93F
LAMBERTVILLE   CLOUDY    49  47  93 N5        29.95R
LANSING        LGT RAIN  42  40  92 N13       29.97F
LAPEER         LGT RAIN  43  42  97 N6        29.98F
MASON          LGT RAIN  42  40  95 NE8       29.95F
MONROE         CLOUDY    47  46  98 N7        29.93R
MT. CLEMENS    LGT RAIN  46  46 100 NE7       29.95F FOG
PONTIAC        CLOUDY    44  43  96 N7        29.94F
PORT HOPE        N/A     41  39  93 E3        30.03R
PORT HURON     HVY RAIN  45  45 100 NE5       29.97F
TRI CITIES     CLOUDY    44  38  79 N10       30.01F
MIDLAND        MOCLDY    42  36  78 CALM      30.04R
TROY           LGT RAIN  46  45  97 N8        29.96S
SAGINAW HB     CLOUDY    43  41  93 N9        29.99F
$$
MIZ043>046-050>051-056>058-064>065-071>073-077>080-020900-
SOUTHWEST LOWER MICHIGAN

CITY           SKY/WX    TMP DP  RH WIND       PRES   REMARKS
BATTLE CREEK   CLOUDY    43  41  93 NE7       29.97R
BENTON HARBOR  LGT RAIN  45  42  89 VRB3      30.00R
BIG RAPIDS     CLOUDY    41  32  69 CALM      30.04R
COLDWATER      CLOUDY    45  43  95 NE5       29.95R
FREMONT        CLOUDY    45  34  65 N7        30.03S
HOLLAND        CLOUDY   N/A N/A N/A N6        30.02S
GRAND RAPIDS   LGT RAIN  44  41  89 NE10      30.01S
IONIA          RAIN      41  40  96 N9        29.99F
KALAMAZOO      CLOUDY    44  40  85 N7        29.98R
LUDINGTON      CLEAR     39  38  94 CALM      30.07S
MARSHALL       CLOUDY    43  42  96 CALM      29.95R
MOUNT PLEASANT CLOUDY    41  35  77 CALM      30.04R
MUSKEGON       CLOUDY    45  34  65 N7        30.04S
SOUTH HAVEN    CLOUDY    44  43  97 N6        30.00R
$$
MIZ016>042-020900-
NORTHERN LOWER MICHIGAN

CITY           SKY/WX    TMP DP  RH WIND       PRES   REMARKS
ALPENA         PTCLDY    34  31  88 CALM      30.07S
BEAVER ISLAND  CLEAR     33  32  97 CALM      30.06S
BELLAIRE       CLEAR     33  32  96 CALM      30.07S
CADILLAC       CLEAR     32  30  92 NW6       30.04S WCI  26
CHARLEVOIX     CLEAR     36  33  87 CALM      30.09S
FRANKFORT      CLEAR     36  34  92 CALM      30.07S
GAYLORD        MOCLDY    33  29  85 CALM      30.05S
GRAYLING       PTCLDY    30  28  93 CALM      30.06S
HARBOR SPRINGS CLEAR     37  32  81 CALM      30.06S
HOUGHTON LAKE  CLEAR     34  31  88 N3        30.04F
MANISTEE       CLEAR     37  32  81 CALM      30.07S
OSCODA         MOCLDY    36  33  90 W3        30.06R
PELLSTON       CLEAR     30  29  96 CALM      30.07S
ROGERS CITY    CLEAR     33  30  91 CALM      30.07S
TRAVERSE CITY  CLEAR     34  31  88 CALM      30.06S
$$
MIZ007>008-015-020900-
EASTERN UPPER MICHIGAN

CITY           SKY/WX    TMP DP  RH WIND       PRES   REMARKS
KINROSS          N/A     45  36  70 CALM      30.06R
MACKINAC ISLAN CLEAR     44  32  62 S6        30.05S
NEWBERRY       PTCLDY    40  34  77 NW7       30.06S
S. S. MARIE    CLOUDY    46  34  62 CALM      30.06S
MUNISING         N/A     32  30  92 S7        30.09F WCI  26
$$
MIZ004>006-011>014-085-020900-
CENTRAL UPPER MICHIGAN

CITY           SKY/WX    TMP DP  RH WIND       PRES   REMARKS
MANISTIQUE     CLEAR     36  33  89 N6        30.07R WCI  31
ESCANABA       CLEAR     37  30  75 NW5       30.09S WCI  34
MENOMINEE      CLEAR     39  30  70 CALM      30.10R
SAWYER-GWINN   CLEAR     32  29  88 N3        30.09R
$$
MIZ001>003-009>011-084-020900-
WESTERN UPPER MICHIGAN

CITY           SKY/WX    TMP DP  RH WIND       PRES   REMARKS
IRON MOUNTAIN  CLEAR     30  24  78 CALM      30.09S
HOUGHTON       CLEAR     33  28  81 NW6       30.11S WCI  28
COPPER HARBOR    N/A     34  32  92 W3        30.12S
IRONWOOD         N/A     30  28  93 CALM      30.10S
$$

ABBREVIATIONS USED IN REMARKS
   TC - TEMPERATURE IN CELSIUS
  WCI - WIND CHILL INDEX
   HX - HEAT INDEX
  VSB - VISIBILITY





USA.gov is the U.S. government's official web portal to all federal, state and local government web resources and services.